Location: Champs
(48.8539°N, 2.6040°E)
Time: 06:14:03
(UTC+00:00)

Nadezhda 3 Rocket - Pass Details

Date: 26 October 2021
Orbit: 957 x 998 km, 82.9° (Epoch: 04 December)

Event Time Altitude Azimuth Distance (km) Brightness Sun altitude
Rises 04:23:35 0° 185° (S) 3,624 6.9 -20.9°
Reaches altitude 10° 04:26:03 10° 185° (S) 2,683 6.2 -20.5°
Maximum altitude 04:32:11 86° 98° (E) 970 4.0 -19.5°
Drops below altitude 10° 04:38:25 10° 10° (N) 2,714 6.5 -18.4°
Sets 04:40:56 0° 10° (N) 3,670 7.2 -18.0°
